Tracking 29892 objects as of 21-Nov-2024
HD Live streaming from Space Station
objects crossing your sky now

ARIANE 5 R/B

Track ARIANE 5 R/B now!


NORAD ID: 39036
Int'l Code: 2012-075C
Perigee: 292.0 km
Apogee: 33,441.2 km
Inclination: 2.3 °
Period: 587.6 minutes
Semi major axis: 23237 km
RCS: 26.6167 m2 (large)
Launch date: December 19, 2012
Source: France (FR)
Launch site: FRENCH GUIANA (FRGUI)

Note: This is a ROCKET BODY
Your satellite tracking list
Your tracking list is empty




NASA's NSSDC Master Catalog

Two Line Element Set (TLE):
1 39036U 12075C   24325.58823494  .00001515  00000-0  79975-3 0  9997
2 39036   2.2548 132.6985 7132682 354.9102   0.5191  2.45084617102580
Source of the keplerian elements: AFSPC